Weather History for Spirit of St Louis, MO

Change the Weather History Date:

Friday, February 22, 2013

  Actual Average Record
Temperature  
Mean Temperature 27 °F -  
Max Temperature 36 °F 45 °F 64 °F (2000)
Min Temperature 17 °F 27 °F 17 °F (2013)
Degree Days  
Heating Degree Days 38    
Moisture  
Dew Point 25 °F    
Average Humidity 78    
Maximum Humidity 93    
Minimum Humidity 59    
Precipitation  
Precipitation 0.00 in - - ()
Sea Level Pressure  
Sea Level Pressure 29.95 in    
Wind  
Wind Speed 5 mph (WSW)    
Max Wind Speed 18 mph    
Max Gust Speed 25 mph    
Visibility 9 miles    
Events Snow    
Averages and records for this station are not official NWS values.
T = Trace of Precipitation, MM = Missing Value Source: NWS Daily Summary

Daily Weather History Graph

Daily Weather History Graph

Search for Another Location

Airport:

Trip Planner

Search our weather history database for the weather conditions in past years. The results will help you decide how hot, cold, wet, or windy it might be!

Date:

Astronomy

Feb. 22, 2013 Rise Set
Actual Time 6:44 AM CST 5:48 PM CST
Civil Twilight 6:17 AM CST 6:15 PM CST
Nautical Twilight 5:46 AM CST 6:46 PM CST
Astronomical Twilight 5:15 AM CST 7:17 PM CST
Moon 3:01 PM CST (2/22) 4:28 AM CST (2/22)
Length of Visible Light 11h 58m
Length of Day
11h 04m
Waxing Gibbous, 90% of the Moon is Illuminated
Feb 22
Waxing Gibbous
Feb 25
Full
Mar 4
Last Quarter
Mar 11
New
Mar 19
First Quarter

Hourly Weather History & Observations

Time (CST) Temp. Windchill Dew Point Humidity Pressure Visibility Wind Dir Wind Speed Gust Speed Precip Events Conditions
12:04 AM 32.0 °F - 30.2 °F 93% 29.82 in 1.8 mi Calm Calm - 0.00 in Snow Light Snow
12:14 AM 32.0 °F - 30.2 °F 93% 29.82 in 2.0 mi Calm Calm - 0.00 in Snow Light Snow
12:54 AM 32.0 °F - 30.0 °F 92% 29.85 in 5.0 mi Calm Calm - 0.00 in   Overcast
1:54 AM 32.0 °F - 28.9 °F 88% 29.84 in 9.0 mi Calm Calm - 0.00 in   Overcast
2:30 AM 32.0 °F - 30.2 °F 93% 29.81 in 8.0 mi Calm Calm - N/A   Overcast
2:54 AM 32.0 °F - 30.0 °F 92% 29.83 in 9.0 mi Calm Calm - N/A   Overcast
3:54 AM 34.0 °F 27.2 °F 30.0 °F 85% 29.83 in 10.0 mi SSW 8.1 mph - N/A   Overcast
4:54 AM 35.1 °F 29.3 °F 30.9 °F 85% 29.84 in 10.0 mi SW 6.9 mph - N/A   Overcast
5:52 AM 35.6 °F 30.7 °F 30.2 °F 81% 29.83 in 10.0 mi SW 5.8 mph - N/A   Overcast
5:54 AM 35.1 °F 30.1 °F 30.0 °F 82% 29.85 in 10.0 mi SW 5.8 mph - N/A   Overcast
6:50 AM 35.6 °F 29.9 °F 30.2 °F 81% 29.86 in 10.0 mi South 6.9 mph - 0.00 in   Overcast
6:54 AM 35.1 °F 28.6 °F 30.9 °F 85% 29.89 in 10.0 mi South 8.1 mph - 0.00 in   Overcast
7:54 AM 35.1 °F 29.3 °F 30.0 °F 82% 29.91 in 10.0 mi SSW 6.9 mph - N/A   Overcast
8:54 AM 36.0 °F 29.0 °F 28.9 °F 76% 29.93 in 10.0 mi WSW 9.2 mph - N/A   Overcast
9:51 AM 35.6 °F 25.5 °F 26.6 °F 70% 29.93 in 10.0 mi WSW 17.3 mph 25.3 mph N/A   Overcast
9:54 AM 35.1 °F 24.5 °F 27.0 °F 72% 29.95 in 10.0 mi WSW 18.4 mph 25.3 mph N/A   Overcast
10:54 AM 33.1 °F 21.9 °F 26.1 °F 75% 29.99 in 10.0 mi WSW 18.4 mph 24.2 mph N/A   Overcast
11:54 AM 32.0 °F 22.1 °F 26.1 °F 79% 30.00 in 10.0 mi West 13.8 mph - N/A   Overcast
12:54 PM 32.0 °F 22.1 °F 25.0 °F 75% 30.00 in 10.0 mi West 13.8 mph - N/A   Overcast
1:54 PM 32.0 °F 22.5 °F 23.0 °F 69% 30.01 in 10.0 mi West 12.7 mph - N/A   Overcast
2:05 PM 32.0 °F 22.1 °F 23.0 °F 69% 29.98 in 10.0 mi WSW 13.8 mph - N/A   Overcast
2:54 PM 32.0 °F 22.5 °F 21.9 °F 66% 30.02 in 10.0 mi West 12.7 mph - N/A   Overcast
3:54 PM 33.1 °F 23.9 °F 21.0 °F 61% 30.02 in 10.0 mi West 12.7 mph - N/A   Mostly Cloudy
4:54 PM 32.0 °F 23.6 °F 19.9 °F 61% 30.02 in 10.0 mi West 10.4 mph - N/A   Partly Cloudy
5:54 PM 30.9 °F 21.7 °F 18.0 °F 59% 30.04 in 10.0 mi West 11.5 mph - N/A   Clear
6:54 PM 26.1 °F 20.5 °F 17.1 °F 69% 30.06 in 10.0 mi West 4.6 mph - N/A   Clear
7:54 PM 21.9 °F 15.7 °F 14.0 °F 72% 30.07 in 10.0 mi West 4.6 mph - N/A   Clear
8:54 PM 19.9 °F - 14.0 °F 78% 30.09 in 10.0 mi Calm Calm - N/A   Clear
9:54 PM 18.0 °F - 14.0 °F 84% 30.12 in 10.0 mi Calm Calm - N/A   Clear
10:54 PM 18.0 °F 12.7 °F 14.0 °F 84% 30.12 in 10.0 mi SW 3.5 mph - N/A   Clear
11:54 PM 17.1 °F - 12.0 °F 81% 30.10 in 10.0 mi Calm Calm - N/A   Clear